軌道要素
Epoch 2022 Aug. 9.0 TT = JDT 2459800.5
T 2020 July 11.86790 TT Rudenko
q 5.0183844 (2000.0) P Q
n 0.05675832 Peri. 355.04782 -0.75263097 +0.64868156
a 6.7057859 Node 226.06638 -0.59859559 -0.74554026
e 0.2516337 Incl. 9.02415 -0.27428077 -0.15291161
P 17.4
From 191 observations 2002 Apr. 5-2022 July 4, mean residual 0".4.
|